Weather History for Renton, WA

Change the Weather History Date:

Saturday, February 9, 2013

  Actual Average Record
Temperature  
Mean Temperature 42 °F -  
Max Temperature 45 °F 48 °F 57 °F (2007)
Min Temperature 39 °F 35 °F 28 °F (1997)
Degree Days  
Heating Degree Days 23    
Moisture  
Dew Point 39 °F    
Average Humidity 89    
Maximum Humidity 96    
Minimum Humidity 74    
Precipitation  
Precipitation 0.00 in - - ()
Sea Level Pressure  
Sea Level Pressure 30.30 in    
Wind  
Wind Speed 1 mph (NNW)    
Max Wind Speed 5 mph    
Max Gust Speed -    
Visibility 8 miles    
Events      
Averages and records for this station are not official NWS values.
T = Trace of Precipitation, MM = Missing Value Source: NWS Daily Summary

Daily Weather History Graph

Daily Weather History Graph

Search for Another Location

Airport:

Trip Planner

Search our weather history database for the weather conditions in past years. The results will help you decide how hot, cold, wet, or windy it might be!

Date:

Astronomy

Feb. 09, 2013 Rise Set
Actual Time 7:23 AM PST 5:23 PM PST
Civil Twilight 6:51 AM PST 5:55 PM PST
Nautical Twilight 6:14 AM PST 6:32 PM PST
Astronomical Twilight 5:39 AM PST 7:07 PM PST
Moon 6:37 AM PST (2/9) 5:15 PM PST (2/9)
Length of Visible Light 11h 04m
Length of Day
10h 00m
Waning Crescent, 0% of the Moon is Illuminated
Feb 9
Waning Crescent
Feb 9
New
Feb 17
First Quarter
Feb 25
Full
Mar 4
Last Quarter

Hourly Weather History & Observations

Time (PST) Temp. Windchill Dew Point Humidity Pressure Visibility Wind Dir Wind Speed Gust Speed Precip Events Conditions
12:53 AM 39.9 °F - 36.0 °F 86% 30.30 in 10.0 mi Calm Calm - N/A   Overcast
1:53 AM 39.9 °F - 36.0 °F 86% 30.30 in 10.0 mi Calm Calm - N/A   Overcast
2:53 AM 39.9 °F - 37.0 °F 89% 30.30 in 10.0 mi Calm Calm - N/A   Overcast
3:08 AM 39.2 °F - 37.4 °F 93% 30.28 in 8.0 mi Calm Calm - N/A   Overcast
3:53 AM 39.9 °F - 37.9 °F 93% 30.29 in 7.0 mi Calm Calm - N/A   Overcast
4:53 AM 39.0 °F - 37.0 °F 93% 30.29 in 8.0 mi Calm Calm - N/A   Overcast
5:53 AM 39.0 °F - 37.9 °F 96% 30.29 in 7.0 mi Calm Calm - N/A   Overcast
6:05 AM 39.2 °F - 37.4 °F 93% 30.27 in 7.0 mi Calm Calm - N/A   Overcast
6:49 AM 39.2 °F - 37.4 °F 93% 30.29 in 8.0 mi Calm Calm - N/A   Overcast
6:53 AM 39.0 °F - 37.9 °F 96% 30.30 in 8.0 mi Calm Calm - N/A   Overcast
7:43 AM 39.2 °F - 37.4 °F 93% 30.28 in 7.0 mi Calm Calm - N/A   Overcast
7:53 AM 39.9 °F - 37.9 °F 93% 30.30 in 8.0 mi Calm Calm - N/A   Overcast
8:53 AM 39.9 °F 37.8 °F 37.9 °F 93% 30.29 in 8.0 mi ESE 3.5 mph - N/A   Overcast
9:53 AM 42.1 °F - 39.0 °F 89% 30.30 in 10.0 mi Calm Calm - N/A   Overcast
10:53 AM 43.0 °F - 37.9 °F 82% 30.31 in 10.0 mi Calm Calm - N/A   Overcast
11:53 AM 45.0 °F 42.6 °F 39.0 °F 80% 30.30 in 10.0 mi NNW 4.6 mph - N/A   Overcast
12:39 PM 44.6 °F 43.1 °F 37.4 °F 76% 30.28 in 10.0 mi NNW 3.5 mph - N/A   Overcast
12:53 PM 44.1 °F 42.5 °F 37.9 °F 79% 30.30 in 10.0 mi NNW 3.5 mph - N/A   Overcast
1:53 PM 45.0 °F 43.5 °F 37.0 °F 74% 30.29 in 10.0 mi NNW 3.5 mph - N/A   Overcast
2:53 PM 45.0 °F 43.5 °F 37.0 °F 74% 30.28 in 10.0 mi North 3.5 mph - N/A   Overcast
3:53 PM 44.1 °F 42.5 °F 37.9 °F 79% 30.30 in 10.0 mi North 3.5 mph - N/A   Overcast
4:53 PM 43.0 °F 41.3 °F 39.9 °F 89% 30.31 in 5.0 mi NW 3.5 mph - N/A   Overcast
5:53 PM 43.0 °F - 41.0 °F 93% 30.32 in 10.0 mi Calm Calm - N/A   Overcast
6:53 PM 43.0 °F - 39.9 °F 89% 30.32 in 10.0 mi Calm Calm - N/A   Overcast
7:53 PM 43.0 °F - 41.0 °F 93% 30.32 in 9.0 mi Calm Calm - N/A   Overcast
8:53 PM 42.1 °F - 41.0 °F 96% 30.33 in 7.0 mi Calm Calm - N/A   Overcast
9:19 PM 42.8 °F - 41.0 °F 93% 30.32 in 8.0 mi Calm Calm - N/A   Overcast
9:27 PM 42.8 °F - 41.0 °F 93% 30.32 in 8.0 mi Calm Calm - N/A   Overcast
9:53 PM 43.0 °F - 41.0 °F 93% 30.34 in 6.0 mi Calm Calm - N/A   Overcast
10:53 PM 42.1 °F 40.2 °F 41.0 °F 96% 30.35 in 6.0 mi NNW 3.5 mph - N/A   Overcast
11:53 PM 42.1 °F 40.2 °F 41.0 °F 96% 30.36 in 5.0 mi NW 3.5 mph - N/A   Overcast